Temp
17 20 19 18 17 17 17 16 17 18 16 15 17 17 15 11 10 10 9 9 8 7 6 4 3 3 1 1 1 1 2 4 6 9 12 13 14 13 13 13 13 13 14 14
19 19 17 16 16 16 16 17 18 17 15 15 17 16 16 12 11 10 7 8 7 7 7 6 5 3 1 0 0 0 1 2 4 8 11 12 11 11 10 10 11 12 13 13
19 18 16 16 17 17 18 17 17 16 16 16 14 17 13 12 10 9 7 6 7 6 5 5 4 3 0 -0 -1 -1 -0 1 2 5 10 10 9 9 8 7 8 9 10 11
18 17 16 17 17 16 17 15 15 15 15 17 15 18 16 13 11 10 9 7 6 6 5 4 3 2 2 -0 -1 -1 -1 0 2 4 4 4 4 5 5 5 5 6 8 8
18 16 16 17 16 15 17 15 14 14 15 14 16 15 18 12 12 12 11 8 7 5 5 4 2 2 2 1 -0 -1 -1 -0 1 3 3 1 1 1 2 3 4 4 6 6
16 15 15 16 15 15 15 15 14 14 14 15 15 15 20 16 14 14 11 8 6 5 5 4 3 2 2 1 1 0 -1 0 0 1 1 1 2 0 0 -0 1 2 2 4
17 17 16 15 16 15 17 17 17 17 17 17 14 15 18 15 12 13 11 8 6 5 4 4 3 3 2 1 1 2 1 -0 -1 -1 -1 1 -1 -0 -1 -1 -2 -1 -0 1
16 17 16 15 16 16 15 16 16 15 16 17 15 16 19 11 9 10 10 8 6 5 4 3 2 2 1 1 1 1 0 -0 -1 -1 -2 -1 1 -2 -2 -3 -3 -2 -2 -2
16 17 15 14 14 15 16 16 14 14 14 13 16 17 10 9 9 8 8 7 6 5 4 3 1 1 0 0 -0 -0 -0 -0 -1 -2 -1 -1 -1 -1 -2 -1 -1 -2 -2 -1
15 15 14 15 14 13 15 14 15 15 15 15 17 16 17 14 12 10 9 8 7 5 4 3 1 0 -0 -1 -1 -1 -0 -1 -1 -1 -2 -2 -2 -2 -2 -1 -2 -2 -2 -2
15 14 16 14 15 16 14 14 14 14 14 15 14 17 17 15 13 12 11 9 8 6 5 4 2 0 -1 -1 -1 -1 -1 -1 -1 -1 -1 -2 -3 -3 -3 -3 -3 -1 -1 -1
13 14 14 16 14 12 14 15 15 15 14 14 13 14 14 13 13 12 12 11 9 7 5 4 2 1 -0 -1 -1 -1 -1 -2 -2 -2 -2 -2 -2 -2 -3 -3 -3 -3 -3 -3
13 14 13 16 14 12 13 13 14 13 13 13 13 16 13 12 12 12 12 11 9 7 5 3 2 1 0 -1 -1 -2 -2 -2 -2 -2 -2 -3 -3 -3 -3 -3 -4 -4 -4 -4
13 13 14 14 15 14 13 14 14 14 13 14 15 15 17 16 16 15 12 10 9 6 4 4 2 1 0 -1 -2 -2 -3 -3 -3 -3 -3 -3 -3 -4 -4 -4 -4 -4 -4 -5
12 11 12 13 13 13 13 13 13 12 12 13 15 15 17 16 16 14 12 11 8 6 4 3 3 1 -0 -1 -2 -3 -4 -4 -4 -4 -4 -4 -4 -4 -4 -5 -5 -5 -4 -4
10 11 10 10 12 12 11 12 12 12 12 13 13 13 15 15 11 10 9 8 7 5 4 3 2 1 -0 -1 -2 -3 -4 -4 -5 -4 -5 -5 -5 -5 -5 -5 -6 -6 -6 -6
10 10 10 11 11 11 12 14 14 13 12 12 13 16 12 11 10 9 8 7 6 5 4 3 1 -1 -2 -2 -3 -3 -4 -5 -5 -5 -5 -5 -5 -5 -5 -6 -6 -6 -6 -6
11 10 10 10 11 12 16 12 12 12 13 12 12 13 12 9 6 4 4 5 5 4 3 2 0 -1 -3 -3 -4 -4 -5 -5 -5 -5 -5 -6 -6 -6 -6 -6 -6 -6 -6 -6
9 11 10 11 11 14 15 10 11 11 13 13 12 12 8 4 4 6 2 2 3 3 2 -0 -1 -2 -4 -4 -5 -5 -5 -6 -6 -6 -6 -6 -6 -6 -6 -6 -6 -7 -7 -6
7 10 9 9 10 13 16 9 8 8 12 8 8 9 7 4 9 8 0 0 -0 -1 -2 -3 -4 -4 -4 -5 -6 -6 -5 -6 -6 -7 -7 -7 -7 -7 -7 -7 -7 -7 -7 -7
8 7 8 10 10 12 13 8 7 11 14 7 6 6 5 5 3 -0 -1 -2 -2 -3 -4 -4 -4 -6 -7 -7 -6 -6 -6 -6 -7 -8 -8 -8 -8 -8 -8 -8 -7 -8 -8 -8
11 8 9 9 9 10 8 7 11 10 7 5 4 3 3 1 -2 -2 -2 -3 -3 -5 -6 -7 -7 -7 -7 -7 -7 -6 -6 -7 -8 -8 -8 -8 -8 -9 -9 -8 -8 -8 -8 -8
10 12 12 11 13 9 8 9 5 3 4 2 1 -1 -0 -1 -2 -3 -4 -5 -5 -6 -7 -8 -8 -7 -7 -7 -8 -7 -7 -8 -9 -9 -8 -9 -9 -9 -9 -9 -9 -9 -9 -9
7 10 10 9 12 11 9 4 2 1 0 -1 -1 -2 -2 -2 -3 -4 -5 -5 -6 -7 -8 -8 -7 -7 -7 -8 -9 -9 -9 -9 -10 -9 -9 -10 -10 -10 -9 -10 -10 -10 -10 -9
10 8 8 7 9 9 2 0 -1 -2 -2 -3 -3 -3 -3 -3 -4 -5 -5 -7 -7 -8 -8 -8 -8 -8 -8 -9 -10 -10 -10 -11 -10 -10 -10 -11 -10 -10 -10 -10 -10 -10 -10 -10
8 9 8 9 0 1 -1 -2 -2 -3 -3 -4 -4 -4 -5 -5 -5 -7 -7 -8 -8 -9 -8 -8 -9 -9 -10 -10 -10 -11 -11 -11 -11 -11 -11 -11 -11 -11 -10 -11 -11 -11 -11 -10
Height
837 833 838 841 842 843 844 843 840 832 837 841 830 828 831 843 848 849 851 848 850 851 851 848 844 838 831 824 816 811 802 796 791 788 788 788 787 789 789 789 789 789 789 789
836 839 844 846 848 847 844 840 832 834 840 841 826 824 821 838 841 848 853 852 853 851 850 849 845 840 835 827 821 814 806 800 794 790 787 787 788 789 789 788 786 786 785 784
840 845 847 847 844 842 834 840 838 843 838 835 836 812 829 839 846 852 856 857 856 855 854 851 846 843 838 829 824 818 812 805 798 790 788 789 789 791 790 789 787 786 782 782
846 847 849 846 846 848 841 845 846 844 841 829 836 815 815 829 840 846 851 857 857 857 856 854 851 847 844 837 830 824 818 810 806 795 793 794 794 796 797 795 793 790 785 784
848 849 849 847 850 852 844 846 845 845 841 842 831 833 804 831 830 834 842 850 854 856 856 855 853 851 847 844 837 830 825 818 812 807 806 802 801 803 804 801 797 793 790 788
849 852 851 849 851 851 846 842 843 844 840 836 831 831 796 814 818 820 837 848 855 856 857 855 855 852 849 847 842 837 830 824 818 816 813 810 807 806 809 809 804 801 796 796
848 848 850 852 846 848 841 835 833 831 828 820 835 831 801 815 826 825 834 843 851 855 857 856 856 853 851 848 844 842 837 831 829 824 820 817 821 816 816 818 813 810 803 801
858 851 850 852 851 851 850 847 847 851 836 827 828 822 797 829 835 835 838 845 850 853 855 856 857 855 852 851 848 845 842 838 836 833 829 826 821 822 822 823 823 814 811 807
859 850 852 854 853 853 847 848 856 851 852 852 819 810 831 834 837 841 843 848 851 852 853 854 855 854 853 851 850 847 845 842 840 837 833 831 830 831 831 828 820 823 820 814
865 863 854 852 855 855 850 853 849 850 845 838 816 815 806 813 819 832 836 838 843 851 853 854 853 854 851 850 849 847 845 844 842 840 839 838 836 835 831 824 826 824 825 821
866 868 851 854 849 847 852 850 853 853 850 842 832 805 800 807 812 816 821 829 835 843 847 849 851 852 852 849 848 849 847 846 846 845 843 842 840 837 834 833 830 824 822 818
870 869 863 848 851 857 853 847 845 847 848 848 851 823 808 810 812 815 813 820 828 836 842 847 849 850 849 849 848 848 848 848 847 845 843 841 840 839 836 834 833 832 831 830
870 867 863 839 851 857 854 853 850 851 852 846 844 809 807 811 812 811 809 813 820 829 838 844 848 849 848 848 847 846 847 847 847 846 844 841 839 837 836 835 834 834 833 831
867 867 863 857 848 851 849 846 847 847 846 831 818 804 790 796 797 798 805 810 816 824 833 838 843 846 847 848 846 846 847 847 847 846 845 844 843 842 841 839 837 834 832 830
870 868 862 855 851 849 842 835 839 842 832 834 797 802 783 788 790 793 798 803 813 820 828 834 838 844 847 848 848 847 847 847 848 847 846 845 844 843 842 841 839 836 834 831
873 863 867 861 847 847 842 831 829 829 822 819 810 801 789 790 801 803 803 806 811 817 824 830 836 840 844 848 849 849 849 848 848 847 846 845 844 843 841 840 838 836 834 832
869 868 866 853 850 851 835 810 810 812 814 811 807 786 794 796 800 802 805 808 809 813 820 828 834 840 845 847 848 849 849 848 847 846 845 844 843 842 841 839 836 834 832 830
859 865 866 855 844 832 795 808 810 808 801 801 797 791 794 802 810 815 815 810 812 816 822 829 835 840 844 846 848 849 848 847 847 846 845 843 841 840 838 836 834 832 829 827
861 858 858 849 835 807 794 810 809 807 791 791 793 793 804 814 813 808 818 816 817 822 828 833 837 841 844 846 847 849 849 847 846 846 845 843 840 838 836 835 832 830 828 825
866 858 859 854 845 811 784 810 816 817 792 801 804 801 804 813 795 797 822 822 824 829 834 837 841 844 846 847 848 848 847 846 845 844 842 840 838 837 834 832 829 827 825 822
862 865 855 840 834 808 796 813 819 803 782 803 806 806 809 809 813 823 826 829 831 833 836 840 842 846 847 848 848 847 846 844 843 842 840 839 837 834 832 830 828 825 822 819
835 847 847 844 841 824 813 820 806 800 803 809 809 812 811 818 824 826 830 833 836 839 841 842 844 846 848 848 848 846 845 843 841 839 838 836 834 832 829 827 824 821 820 817
832 821 816 820 798 801 809 801 812 815 813 815 817 819 818 821 825 829 832 836 839 841 843 844 845 847 847 847 846 845 843 842 840 838 835 833 831 829 827 824 822 820 817 815
829 821 817 816 790 795 799 813 819 819 819 821 821 821 821 823 828 831 834 837 840 843 844 845 845 846 845 845 844 843 841 839 837 835 833 831 828 826 824 822 820 817 815 812
816 818 814 807 797 800 818 823 823 825 825 826 826 826 826 828 832 834 837 840 842 843 844 845 844 844 844 843 842 840 839 837 835 833 830 828 826 824 821 819 816 814 812 810
812 808 805 795 827 823 828 829 829 828 830 831 830 832 833 834 836 838 840 842 843 844 844 844 843 843 843 842 840 838 837 835 833 830 828 826 824 821 818 815 812 810 807 804
Wind_Speed
4 2 6 5 2 2 3 6 8 8 2 5 11 14 11 10 6 4 1 4 6 8 9 12 15 20 23 25 27 27 26 22 17 12 5 2 2 3 4 5 11 16 19 27
1 4 3 1 0 3 5 9 6 5 2 4 11 16 9 11 6 3 0 4 7 8 10 14 17 21 23 23 26 27 30 24 19 12 7 2 4 7 7 6 0 9 17 21
2 3 2 2 3 7 9 5 5 6 8 8 10 11 6 7 4 3 1 1 4 7 9 13 19 21 25 28 30 28 31 31 26 21 15 15 20 20 20 18 17 16 14 3
2 3 3 4 3 5 9 2 5 11 7 6 3 6 4 6 9 6 4 1 3 6 7 10 14 18 20 23 28 29 31 34 35 30 29 28 23 16 19 21 23 23 24 24
3 4 4 2 4 2 5 6 8 4 6 6 3 4 3 3 8 11 7 4 1 4 6 8 11 13 15 17 23 28 29 35 38 39 36 33 32 25 20 21 23 26 30 29
1 0 1 3 2 2 9 7 4 2 2 3 2 3 4 3 2 8 9 5 1 3 4 7 8 10 13 15 18 22 31 34 36 36 37 36 36 33 32 28 23 25 26 25
5 0 1 1 4 3 10 8 3 2 2 3 2 5 8 1 1 4 11 9 5 2 2 5 7 9 12 16 17 17 21 27 28 30 32 32 30 32 32 24 25 23 26 27
5 1 4 3 2 4 4 4 3 5 5 10 1 5 1 2 3 4 7 8 7 5 3 3 5 7 10 12 14 15 18 20 19 21 23 26 28 24 24 22 21 28 22 26
6 3 1 1 1 3 2 1 2 4 2 4 3 5 4 3 4 5 8 9 9 7 5 5 4 5 7 10 12 13 15 16 16 17 20 22 20 18 13 15 20 17 19 20
1 6 1 1 2 1 2 2 2 1 5 6 6 8 9 4 8 10 12 14 11 8 7 5 5 3 5 7 9 11 13 14 15 15 16 15 16 14 17 19 17 18 16 18
0 2 1 3 3 1 1 2 2 2 3 4 6 7 1 3 3 9 13 14 13 13 11 9 8 6 4 6 8 9 10 11 12 12 11 11 12 13 14 15 17 20 20 21
1 2 5 9 2 1 3 3 4 3 2 4 4 9 3 4 5 6 8 13 15 13 11 10 9 8 7 6 6 7 8 8 9 9 11 12 13 13 15 15 15 15 14 14
3 2 6 3 3 2 3 2 3 3 2 10 8 7 4 4 5 6 9 12 15 14 13 11 10 9 7 5 5 6 6 6 7 8 9 11 13 14 14 14 13 12 11 12
4 3 8 9 13 10 16 12 8 10 9 14 19 25 26 18 17 14 11 11 14 15 15 13 11 11 8 6 5 5 4 5 5 6 7 9 10 10 10 11 12 13 13 13
2 5 8 14 17 18 21 22 17 17 23 12 25 18 26 21 18 16 12 9 14 16 16 13 11 12 9 7 4 4 3 3 3 4 6 7 8 8 8 8 9 10 12 12
2 4 2 9 16 15 20 17 17 17 21 20 25 27 24 18 4 5 5 9 14 15 16 14 14 13 10 7 4 3 2 2 3 5 6 7 8 8 8 9 10 10 10 10
4 3 1 5 1 8 13 13 8 4 8 6 9 12 3 5 6 6 5 8 12 14 15 14 14 12 9 7 5 3 1 1 2 3 5 6 6 7 8 9 9 10 10 10
5 4 2 5 7 5 3 3 4 11 13 15 17 15 13 9 7 6 5 6 7 10 13 13 13 12 9 7 3 1 1 2 4 5 6 7 9 9 10 10 11 11 12 12
10 6 4 4 4 13 11 2 3 3 9 6 11 11 4 2 4 3 2 1 3 7 11 12 12 11 9 6 3 1 2 3 3 5 7 8 10 11 12 13 13 13 14 14
4 9 5 3 6 8 4 4 4 2 9 4 4 4 4 2 7 2 4 7 12 13 13 12 10 8 6 4 1 2 3 4 5 7 9 10 11 12 14 15 15 14 15 16
4 3 10 12 7 9 6 7 4 3 8 4 2 3 5 4 3 6 9 12 13 14 14 11 9 6 3 1 2 3 4 5 7 9 10 10 11 13 13 14 14 15 15 16
8 7 6 5 5 10 6 6 5 4 2 2 1 1 2 5 8 9 10 11 13 12 9 7 6 4 2 2 4 5 6 8 9 10 11 12 12 13 13 15 15 15 16 16
5 8 4 9 8 1 10 5 3 4 5 4 2 1 4 8 9 10 10 9 9 8 7 6 4 2 1 3 4 6 9 10 11 12 13 13 14 13 13 13 14 16 14 14
3 5 6 5 5 12 9 5 6 5 3 2 1 3 7 8 10 9 7 8 8 6 6 3 2 2 4 5 7 8 10 11 12 14 14 14 14 14 13 13 13 13 14 15
3 4 5 10 15 8 9 8 5 5 6 6 7 6 7 9 8 8 7 8 7 5 3 2 3 4 6 7 8 10 11 11 12 13 14 14 13 14 15 13 14 15 15 16
5 6 4 7 4 2 3 5 5 6 7 7 9 11 12 11 9 11 9 6 4 2 3 4 6 7 8 9 10 10 10 11 12 13 12 13 14 14 14 15 17 16 18 19
Wind_Direction
27 48 21 4 3 4 306 288 286 286 258 269 262 269 226 196 194 194 309 16 5 359 350 356 1 12 8 10 6 2 360 357 349 350 348 287 253 291 302 275 264 261 249 232
192 53 11 346 195 298 298 308 314 282 259 266 295 270 245 201 205 182 271 355 3 355 0 359 8 15 17 13 8 7 12 13 9 4 334 219 119 88 83 67 274 252 244 243
28 44 344 315 308 324 332 300 335 318 313 253 293 269 207 205 185 168 136 341 10 4 356 359 4 11 6 13 10 14 16 29 28 49 77 90 96 78 54 60 74 84 91 115
9 359 348 335 331 334 325 12 316 310 310 318 339 300 193 189 207 209 185 287 19 10 10 11 8 12 13 11 23 31 29 37 42 56 63 51 53 54 59 57 67 74 90 87
25 351 354 339 0 300 316 318 301 300 288 305 186 268 90 165 219 215 200 176 114 40 17 18 14 12 20 17 21 37 39 43 51 55 55 51 46 40 51 61 63 64 67 72
356 265 255 339 305 253 300 287 271 205 261 253 63 314 297 217 251 196 177 164 129 43 20 35 23 24 27 32 35 28 39 47 52 54 55 54 51 41 35 24 37 51 56 58
329 18 63 339 303 200 342 333 326 283 294 309 174 272 277 319 170 236 181 167 164 141 34 39 23 32 31 35 40 38 37 42 38 48 53 53 51 52 48 26 25 35 43 48
353 330 0 14 29 329 6 350 16 321 325 304 309 246 314 81 103 119 151 161 166 177 145 78 41 35 39 37 40 48 47 47 42 42 51 51 53 42 44 37 35 40 30 48
340 280 335 38 337 302 58 0 11 271 251 271 270 274 185 175 193 176 177 185 199 191 176 140 98 65 49 44 43 46 49 52 49 48 49 53 54 49 39 44 40 34 31 33
85 290 160 278 190 101 312 121 256 207 308 300 280 293 269 225 223 209 211 209 200 197 189 171 138 99 85 63 46 48 51 48 47 48 47 47 47 44 43 42 35 36 33 33
172 258 241 270 208 278 204 199 187 281 260 289 311 289 344 272 209 220 226 212 201 195 198 184 170 145 115 90 71 52 52 49 46 49 52 47 44 42 45 44 35 30 22 22
46 308 282 285 359 355 275 255 220 267 251 251 289 273 165 253 246 240 234 214 204 201 190 185 180 167 150 117 92 73 58 52 46 40 40 39 37 35 35 33 33 31 30 27
166 228 299 275 158 112 244 200 248 301 326 263 266 264 177 209 239 232 231 211 199 189 182 181 187 188 167 140 110 88 68 53 41 35 35 35 31 27 26 25 22 19 20 16
179 232 240 274 296 301 283 265 246 249 272 261 246 271 277 270 283 283 257 228 200 188 185 185 185 192 180 166 135 114 83 55 42 39 37 35 28 24 19 11 8 8 8 8
217 244 239 258 274 272 269 270 260 243 244 256 270 273 277 293 300 300 300 232 196 191 188 188 183 187 183 174 155 132 105 73 49 47 41 32 23 16 11 10 7 2 359 356
190 263 243 279 261 269 269 275 259 250 260 251 261 271 280 291 295 285 286 211 204 197 191 185 181 179 174 180 168 146 111 67 39 30 20 10 3 356 354 351 349 350 347 346
198 225 290 270 200 298 277 262 216 198 229 234 250 272 296 263 269 295 293 229 217 201 189 181 174 169 179 174 157 156 150 80 34 24 11 0 348 344 342 338 337 336 333 329
219 183 201 279 301 239 327 154 278 250 257 232 255 270 283 298 318 307 303 255 220 195 182 172 165 160 154 150 145 127 25 11 1 355 350 346 343 339 334 331 331 330 328 327
222 189 239 259 250 290 281 169 182 224 283 259 253 282 303 326 300 246 2 38 178 172 162 150 146 143 139 132 126 66 339 337 339 335 331 334 336 332 329 327 326 325 322 320
178 220 209 196 254 273 326 157 148 151 287 148 214 269 213 173 276 310 58 104 110 119 122 120 115 113 108 95 60 327 330 330 329 332 332 331 328 322 319 319 320 317 317 313
150 189 220 233 255 280 279 146 153 257 328 148 217 235 190 226 12 102 110 98 104 108 108 108 108 110 102 56 330 324 323 324 324 324 322 319 316 313 311 310 307 306 307 307
189 180 197 219 226 271 126 120 221 328 289 260 270 304 246 108 117 122 116 113 113 108 104 103 103 97 71 345 331 325 322 321 319 318 314 312 310 309 308 306 308 309 306 303
260 202 238 214 238 129 200 294 20 360 332 357 336 47 145 147 143 139 132 129 117 106 96 82 82 87 327 338 339 323 319 320 317 315 313 312 311 309 307 304 304 302 301 299
290 249 243 318 247 260 330 38 30 15 22 41 80 135 151 143 139 139 128 117 105 90 88 81 56 331 326 335 330 318 317 316 314 312 312 312 310 310 307 303 299 299 301 302
264 145 227 254 273 324 72 31 20 62 79 82 73 90 119 124 118 115 105 97 91 91 73 8 344 329 324 326 322 321 320 319 314 311 310 310 310 310 308 303 300 296 292 291
191 274 242 287 23 313 28 26 65 85 84 86 97 85 76 97 101 104 98 92 88 68 359 351 339 328 326 324 320 321 318 314 308 308 311 311 311 309 306 306 304 296 292 294